Location: Oroua River
(40.4333°S, 175.4333°E)
Time: 15:27:41
(UTC+00:00)

ALOS - Pass Details

Date: 03 February 2023
Orbit: 679 x 682 km, 98.0° (Epoch: 23 March)

Event Time Altitude Azimuth Distance (km) Brightness Sun altitude
Exits shadow 14:24:39 60° 98° (E) 792 2.6 -27.4°
Maximum altitude 14:24:47 60° 106° (ESE) 791 2.6 -27.3°
Drops below altitude 10° 14:29:25 10° 185° (S) 2,154 5.5 -26.9°
Sets 14:31:42 0° 188° (S) 3,077 6.3 -26.7°
